星链-32227 (STARLINK-32227)

导读

STARLINK-32227是美国SpaceX公司星链星座的V2Mini卫星,于2024年8月4日由猎鹰9号火箭在肯尼迪航天中心发射,属于星链10-6任务批次。它运行在近地轨道,作为星链星座的组成部分,为全球提供高速低延迟互联网服务,填补偏远区域网络覆盖空白,同时也助力星座规模扩展,目前星链已有超六千颗卫星在轨运行。

Basic Information
目录编号:
60361
目录名称:
STARLINK-32227
国际标识:
2024-138G
轨道中心:
EARTH
卫星名称:
星链-32227 (STARLINK-32227)
卫星全名:
星链-32227 (STARLINK-32227)
卫星状态:
在轨 (已飞行761 天)
发射日期:
2024-08-04 UTC
国别 :
美国 (US)
星等 :
--
Orbit Information
数据来源 国际轨道数据
星历时间: 2026-09-03T15:02:22+0800
22小时前
查看轨道信息
半长轴: 6840.854km
偏心率: 0.0001286
轨道倾角: 53.161°
近地点辐角 82.335°
升交点赤经 204.353°
平近点角 277.779°
近地点: 461.837km
远地点: 463.597km
周期: 93.848分钟
每日圈数: 15.343954
Detailed Information
卫星平台:
Starlink v2.0 mini
运营商:
太空探索技术公司
运营商所在国:
美国
制造商(研发单位):
太空探索技术公司
制造商所在国:
美国
使用方式:
暂无
Satellite Introduction
星链(Starlink)计划是由太空探索技术公司(SpaceX)提出的一个巨型低轨卫星互联网星座项目,计划在2019年至2024年间在太空搭建由约1.2万颗卫星组成的“星链”网络,其中1584颗将部署在地球上空550千米处的近地轨道,并从2020年开始工作。该卫星仍在工作。
2D Orbit Map
3D Orbit Map
Orbit Altitude Analysis Chart
Orbit Inclination Analysis Chart
Orbit Comprehensive Analysis Chart
View Comprehensive Chart
Conjunction Data List
Event ID Objects TCA Miss Dist (km) Collision Risk Probability Collision Risk Index (CRI) Action
CDM_260905-031104-750806-036121
HAWK-2B (47508)
2026-09-05T
03:11:11+0000
1.852 km
极远距离
2.98735E-6 低风险 0.45
CDM_260904-041205-912806-036122
2026-09-04T
04:12:25+0000
2.727 km
极远距离
1.518767E-6 低风险 0.39
CDM_260902-195506-034506-036121
2026-09-02T
19:55:17+0000
2.680 km
极远距离
1.306768E-6 低风险 0.37
CDM_260905-041105-249306-036121
2026-09-05T
04:11:01+0000
2.717 km
极远距离
1.259764E-6 低风险 0.37
CDM_260905-015005-249306-036121
2026-09-05T
01:50:17+0000
2.928 km
极远距离
1.140133E-6 低风险 0.36
CDM_260905-080305-284806-036121
2026-09-05T
08:03:29+0000
2.870 km
极远距离
1.117016E-6 低风险 0.36